Back to catalog

HEBI-5

AliveScienceSSO
NORAD 61871·PAYLOAD·🇨🇳 China
This satellite name has not been confirmed by official sources yet.

Launched Nov 9, 2024 from Jiuquan Satellite Launch Center

Loading…

Next Passes (next 24 hours)

TLE

FreshSource: Space-Track

Epoch: Sep 14, 2026, 14:57 UTC

1 61871U 24203C   26257.62347032  .00007866  00000-0  30565-3 0  9992
2 61871  97.4152 326.1850 0011716  37.2558 322.9491 15.26270232102502

Track HEBI-5 in real time with AllMySat

Download on the App Store